Miscellaneous Local Product
Issued by NWS North Platte, NE

Home | Current Version | Previous Version | Graphics & Text | Print | Product List | Glossary On
Versions: 1 2 3 4 5 6 7 8 9 10 11 12 13 14 15 16 17 18 19 20 21 22 23 24 25 26 27 28 29 30 31 32 33 34 35 36 37 38 39 40 41 42 43 44 45 46 47 48 49 50
000
AXUS43 KLBF 251210
MISLBF


WESTERN AND NORTH CENTRAL NEBRASKA HOURLY WEATHER ROUNDUP
NATIONAL WEATHER SERVICE NORTH PLATTE NE
700 AM CDT TUE APR 25 2017

NOTE: "FAIR" INDICATES FEW OR NO CLOUDS BELOW 12,000 FEET WITH NO
SIGNIFICANT WEATHER AND/OR OBSTRUCTIONS TO VISIBILITY.

NOTE: STATIONS NOT REPORTING VARIABLES SUCH AS SKY/WEATHER OR
PRESSURE ARE PROVIDED BY RAWS AND APRS NETWORKS AND ARE NOT UNDER
NATIONAL WEATHER SERVICE QUALITY CONTROL.

...OBSERVATIONS IN AND NEAR THE EASTERN PANHANDLE OF NEBRASKA...

CITY           SKY/WX    TMP DP  RH WIND       PRES   REMARKS
PINE RIDGE     LGT RAIN  36  35  96 E13       29.61R FOG     WCI  27
CHADRON        LGT RAIN  39  36  89 NE14      29.58R WCI  31
ALLIANCE       CLOUDY    43  42  97 SE14      29.54S
SIDNEY         CLOUDY    43  42  97 CALM      29.57R
CRESCENT LAKE    N/A     41  41  99 E9G17       N/A
$$

...OBSERVATIONS IN NORTHERN NEBRASKA AND FAR SOUTHERN SOUTH DAKOTA...

CITY           SKY/WX    TMP DP  RH WIND       PRES   REMARKS
WINNER         CLOUDY    37  33  85 N14       29.65S WCI  28
VALENTINE      CLOUDY    35  32  88 NE14      29.62F FOG     WCI  26
THEDFORD       RAIN      38  37  96 N10       29.61R WCI  31
AINSWORTH      FOG       35  35 100 N18       29.60F VSB 1/2 WCI  24
O`NEILL        CLOUDY    39  36  91 N10       29.61R WCI  32
ORD            LGT RAIN  42  39  89 NE12      29.52F
BROKEN BOW     TSTM      44  42  93 N14       29.57R
VALENTINE NWR    N/A     35  34  98 N9G16       N/A  WCI  28
HALSEY           N/A     38  37  97 N9G17       N/A  WCI  31
BUTTE            N/A     35  33  93 N16         N/A  WCI  25
CHAMBERS         N/A     39  38  97 N5          N/A
EWING            N/A     40  38  92 NE3         N/A
$$

...OBSERVATIONS IN SOUTHWEST NEBRASKA AND FAR NORTHEAST COLORADO...

CITY           SKY/WX    TMP DP  RH WIND       PRES   REMARKS
HOLYOKE        LGT RAIN  46  43  87 NW6       29.60R
IMPERIAL       CLOUDY    47  44  90 NW8       29.58R
OGALLALA       RAIN      45  43  93 NE12      29.58R
NORTH PLATTE   RAIN      43  41  93 N12       29.59R FOG
MCCOOK         CLOUDY    47  45  93 NW15      29.55R
LEXINGTON      CLOUDY    46  41  85 NW17G24   29.53R
STAPLETON        N/A     39  38  95 CALM        N/A
GOTHENBURG       N/A     45  40  84 NE5         N/A
CALLAWAY         N/A     43  41  94 NW12        N/A
$$

...OBSERVATIONS IN CENTRAL LINCOLN COUNTY AREA...

CITY           SKY/WX    TMP DP  RH WIND       PRES   REMARKS
N.P. AIRPORT   RAIN      43  41  93 N12       29.59R FOG
N.P. DOWNTOWN    N/A     41  40  97 N6          N/A
N.P. SOUTHEAST   N/A     42  40  93 CALM        N/A
N.P. HILLCREST   N/A     41  40  96 NE15G23     N/A
$$

...SOME OBSERVATIONS FROM AROUND THE REGION...

CITY           SKY/WX    TMP DP  RH WIND       PRES   REMARKS
DENVER         PTCLDY    39  36  89 SW10      29.55F WCI  32
LIMON          CLEAR     37  36  96 N12       29.56S WCI  29
ASPEN          CLOUDY    28  27  96 CALM      29.69F
LARAMIE        CLOUDY    31  24  75 SW15      29.59S WCI  20
CASPER         LGT RAIN  39  36  89 W17G24    29.53R WCI  30
CHEYENNE       CLOUDY    36  29  75 SW10      29.55F WCI  28
SCOTTSBLUFF    CLOUDY    46  41  82 SE6       29.54S
GRAND ISLAND   CLOUDY    44  42  93 N10       29.54R
OMAHA          CLOUDY    50  41  71 N8        29.51F
SIOUX FALLS    CLOUDY    41  39  93 N12       29.55F
PIERRE         CLOUDY    34  30  85 N14       29.66F WCI  25
RAPID CITY     LGT SNOW  32  30  92 NE15      29.65R FOG     WCI  22
BISMARCK       CLOUDY    31  27  85 N17       29.81R WCI  19
KANSAS CITY    CLOUDY    60  47  61 SE10      29.50S
HILL CITY      CLOUDY    50  42  74 NE16      29.45F
WICHITA        CLOUDY    59  51  75 SE13      29.36F
DODGE CITY     CLEAR     44  43  96 N5        29.38R FOG
OKLAHOMA CITY  MOCLDY    60  52  74 S18G26    29.40S
DALLAS         PTCLDY    63  57  81 S17G26    29.54S
AMARILLO       CLOUDY    66  24  20 W17       29.47R
$$




USA.gov is the U.S. government's official web portal to all federal, state and local government web resources and services.